Time,TemperatureF,DewpointF,PressureIn,WindDirection,WindDirectionDegrees,WindSpeedMPH,WindSpeedGustMPH,Humidity,HourlyPrecipIn,Conditions,Clouds,dailyrainin,SoftwareType,DateUTC
2013-03-18 00:00:00,14.8,7.4,30.25,ESE,117,7.0,8.0,72,0.00,,CLR,0.00,VWS V14.01,2013-03-18 04:00:00,
2013-03-18 00:01:00,14.8,7.4,30.25,SE,144,5.0,10.0,72,0.00,,CLR,0.00,VWS V14.01,2013-03-18 04:01:00,
2013-03-18 00:06:00,14.8,7.4,30.25,SE,126,3.0,7.0,72,0.00,,CLR,0.00,VWS V14.01,2013-03-18 04:06:00,
2013-03-18 00:11:00,14.8,7.7,30.25,SSE,149,4.0,8.0,73,0.00,,CLR,0.00,VWS V14.01,2013-03-18 04:11:00,
2013-03-18 00:16:00,14.9,7.5,30.25,SSE,150,2.0,2.0,72,0.00,,CLR,0.00,VWS V14.01,2013-03-18 04:16:00,
2013-03-18 00:21:00,15.0,7.9,30.25,SSE,150,9.0,9.0,73,0.00,,CLR,0.00,VWS V14.01,2013-03-18 04:21:00,
2013-03-18 00:26:00,15.2,8.1,30.24,ESE,121,5.0,8.0,73,0.00,,CLR,0.00,VWS V14.01,2013-03-18 04:26:00,
2013-03-18 00:31:00,15.2,8.1,30.24,SE,135,7.0,9.0,73,0.00,,CLR,0.00,VWS V14.01,2013-03-18 04:31:00,
2013-03-18 00:37:00,15.1,8.0,30.24,SE,139,3.0,4.0,73,0.00,,CLR,0.00,VWS V14.01,2013-03-18 04:37:00,
2013-03-18 00:42:00,15.0,7.9,30.24,SE,141,3.0,5.0,73,0.00,,CLR,0.00,VWS V14.01,2013-03-18 04:42:00,
2013-03-18 00:47:00,14.8,8.0,30.24,SE,139,3.0,5.0,74,0.00,,CLR,0.00,VWS V14.01,2013-03-18 04:47:00,
2013-03-18 00:52:00,14.8,8.0,30.24,SE,135,7.0,8.0,74,0.00,,CLR,0.00,VWS V14.01,2013-03-18 04:52:00,
2013-03-18 00:57:00,14.8,8.3,30.24,SSE,163,12.0,12.0,75,0.00,,CLR,0.00,VWS V14.01,2013-03-18 04:57:00,
2013-03-18 01:02:00,14.7,7.9,30.23,SE,134,4.0,10.0,74,0.00,,CLR,0.00,VWS V14.01,2013-03-18 05:02:00,
2013-03-18 01:07:00,14.6,8.1,30.23,SE,134,8.0,8.0,75,0.00,,CLR,0.00,VWS V14.01,2013-03-18 05:07:00,
2013-03-18 01:12:00,14.5,8.0,30.23,ESE,120,6.0,7.0,75,0.00,,CLR,0.00,VWS V14.01,2013-03-18 05:12:00,
2013-03-18 01:17:00,14.4,7.9,30.23,ESE,121,4.0,5.0,75,0.00,,CLR,0.00,VWS V14.01,2013-03-18 05:17:00,
2013-03-18 01:22:00,14.3,8.1,30.23,SE,131,7.0,7.0,76,0.00,,CLR,0.00,VWS V14.01,2013-03-18 05:22:00,
2013-03-18 01:27:00,14.3,8.1,30.23,SE,146,2.0,5.0,76,0.00,,CLR,0.00,VWS V14.01,2013-03-18 05:27:00,
2013-03-18 01:32:00,14.3,8.1,30.23,SE,137,5.0,7.0,76,0.00,,CLR,0.00,VWS V14.01,2013-03-18 05:32:00,
2013-03-18 01:37:00,14.1,7.9,30.23,SE,130,5.0,5.0,76,0.00,,CLR,0.00,VWS V14.01,2013-03-18 05:37:00,
2013-03-18 01:42:00,14.2,8.0,30.23,SE,138,3.0,3.0,76,0.00,,CLR,0.00,VWS V14.01,2013-03-18 05:42:00,
2013-03-18 01:47:00,14.2,8.0,30.23,SE,144,3.0,3.0,76,0.00,,CLR,0.00,VWS V14.01,2013-03-18 05:47:00,
2013-03-18 01:52:00,14.0,8.1,30.23,ESE,123,4.0,5.0,77,0.00,,CLR,0.00,VWS V14.01,2013-03-18 05:52:00,
2013-03-18 01:57:00,13.9,8.0,30.23,SE,133,1.0,3.0,77,0.00,,CLR,0.00,VWS V14.01,2013-03-18 05:57:00,
2013-03-18 02:02:00,13.6,7.7,30.22,SE,132,2.0,2.0,77,0.00,,CLR,0.00,VWS V14.01,2013-03-18 06:02:00,
2013-03-18 02:07:00,13.5,7.7,30.22,ESE,121,1.0,2.0,77,0.00,,CLR,0.00,VWS V14.01,2013-03-18 06:07:00,
2013-03-18 02:12:00,13.7,7.8,30.22,ESE,115,2.0,4.0,77,0.00,,CLR,0.00,VWS V14.01,2013-03-18 06:12:00,
2013-03-18 02:17:00,13.7,8.1,30.21,SE,124,3.0,4.0,78,0.00,,CLR,0.00,VWS V14.01,2013-03-18 06:17:00,
2013-03-18 02:22:00,13.6,7.7,30.22,SE,126,3.0,4.0,77,0.00,,CLR,0.00,VWS V14.01,2013-03-18 06:22:00,
2013-03-18 02:27:00,13.6,8.0,30.22,SE,128,3.0,5.0,78,0.00,,CLR,0.00,VWS V14.01,2013-03-18 06:27:00,
2013-03-18 02:32:00,13.6,8.0,30.22,ESE,113,4.0,6.0,78,0.00,,CLR,0.00,VWS V14.01,2013-03-18 06:32:00,
2013-03-18 02:37:00,13.7,8.1,30.22,ESE,121,9.0,11.0,78,0.00,,CLR,0.00,VWS V14.01,2013-03-18 06:37:00,
2013-03-18 02:42:00,14.1,8.2,30.21,ESE,107,4.0,4.0,77,0.00,,CLR,0.00,VWS V14.01,2013-03-18 06:42:00,
2013-03-18 02:47:00,14.0,8.1,30.21,SE,125,3.0,4.0,77,0.00,,CLR,0.00,VWS V14.01,2013-03-18 06:47:00,
2013-03-18 02:52:00,13.8,7.9,30.21,SE,134,4.0,4.0,77,0.00,,CLR,0.00,VWS V14.01,2013-03-18 06:52:00,
2013-03-18 02:57:00,13.7,7.8,30.21,SE,132,4.0,4.0,77,0.00,,CLR,0.00,VWS V14.01,2013-03-18 06:57:00,
2013-03-18 03:02:00,13.3,7.7,30.21,ESE,116,3.0,4.0,78,0.00,,CLR,0.00,VWS V14.01,2013-03-18 07:02:00,
2013-03-18 03:08:00,13.3,7.7,30.20,SE,125,7.0,8.0,78,0.00,,CLR,0.00,VWS V14.01,2013-03-18 07:08:00,
2013-03-18 03:13:00,13.5,7.9,30.20,ESE,120,7.0,8.0,78,0.00,,CLR,0.00,VWS V14.01,2013-03-18 07:13:00,
2013-03-18 03:18:00,13.6,8.0,30.20,SE,140,7.0,8.0,78,0.00,,CLR,0.00,VWS V14.01,2013-03-18 07:18:00,
2013-03-18 03:23:00,13.3,7.7,30.19,SE,125,4.0,5.0,78,0.00,,CLR,0.00,VWS V14.01,2013-03-18 07:23:00,
2013-03-18 03:28:00,13.3,7.7,30.19,ESE,123,5.0,5.0,78,0.00,,CLR,0.00,VWS V14.01,2013-03-18 07:28:00,
2013-03-18 03:33:00,13.2,7.9,30.18,SE,124,4.0,5.0,79,0.00,,CLR,0.00,VWS V14.01,2013-03-18 07:33:00,
2013-03-18 03:38:00,13.3,8.0,30.18,SE,129,4.0,7.0,79,0.00,,CLR,0.00,VWS V14.01,2013-03-18 07:38:00,
2013-03-18 03:43:00,13.4,8.1,30.18,ESE,123,8.0,8.0,79,0.00,,CLR,0.00,VWS V14.01,2013-03-18 07:43:00,
2013-03-18 03:48:00,13.5,7.9,30.18,SE,134,12.0,13.0,78,0.00,,CLR,0.00,VWS V14.01,2013-03-18 07:48:00,
2013-03-18 03:53:00,13.6,8.0,30.18,SE,130,4.0,4.0,78,0.00,,CLR,0.00,VWS V14.01,2013-03-18 07:53:00,
2013-03-18 03:58:00,13.5,8.2,30.18,SE,124,3.0,3.0,79,0.00,,CLR,0.00,VWS V14.01,2013-03-18 07:58:00,
2013-03-18 04:03:00,13.6,8.3,30.18,SE,136,7.0,7.0,79,0.00,,CLR,0.00,VWS V14.01,2013-03-18 08:03:00,
2013-03-18 04:08:00,13.6,8.0,30.18,ESE,118,3.0,7.0,78,0.00,,CLR,0.00,VWS V14.01,2013-03-18 08:08:00,
2013-03-18 04:13:00,13.6,8.3,30.17,ESE,119,7.0,8.0,79,0.00,,CLR,0.00,VWS V14.01,2013-03-18 08:13:00,
2013-03-18 04:18:00,13.9,8.6,30.17,SE,126,5.0,5.0,79,0.00,,CLR,0.00,VWS V14.01,2013-03-18 08:18:00,
2013-03-18 04:23:00,14.0,8.7,30.17,SE,125,8.0,9.0,79,0.00,,CLR,0.00,VWS V14.01,2013-03-18 08:23:00,
2013-03-18 04:28:00,13.9,8.3,30.17,ESE,123,8.0,8.0,78,0.00,,CLR,0.00,VWS V14.01,2013-03-18 08:28:00,
2013-03-18 04:33:00,13.7,8.1,30.17,SE,131,5.0,7.0,78,0.00,,CLR,0.00,VWS V14.01,2013-03-18 08:33:00,
2013-03-18 04:38:00,13.5,8.2,30.16,ESE,119,6.0,8.0,79,0.00,,CLR,0.00,VWS V14.01,2013-03-18 08:38:00,
2013-03-18 04:43:00,13.4,8.1,30.16,ESE,109,9.0,10.0,79,0.00,,CLR,0.00,VWS V14.01,2013-03-18 08:43:00,
2013-03-18 04:48:00,13.5,8.2,30.15,ESE,117,7.0,8.0,79,0.00,,CLR,0.00,VWS V14.01,2013-03-18 08:48:00,
2013-03-18 04:53:00,13.5,8.5,30.15,ESE,123,8.0,8.0,80,0.00,,CLR,0.00,VWS V14.01,2013-03-18 08:53:00,
2013-03-18 04:58:00,13.5,8.5,30.15,ESE,119,7.0,8.0,80,0.00,,CLR,0.00,VWS V14.01,2013-03-18 08:58:00,
2013-03-18 05:03:00,13.7,8.7,30.15,SE,132,8.0,10.0,80,0.00,,CLR,0.00,VWS V14.01,2013-03-18 09:03:00,
2013-03-18 05:09:00,14.0,9.0,30.15,SE,137,7.0,8.0,80,0.00,,CLR,0.00,VWS V14.01,2013-03-18 09:09:00,
2013-03-18 05:14:00,14.2,9.2,30.15,SE,128,5.0,10.0,80,0.00,,CLR,0.00,VWS V14.01,2013-03-18 09:14:00,
2013-03-18 05:19:00,14.3,9.3,30.14,ESE,121,12.0,12.0,80,0.00,,CLR,0.00,VWS V14.01,2013-03-18 09:19:00,
2013-03-18 05:24:00,14.4,9.4,30.14,SE,137,4.0,7.0,80,0.00,,CLR,0.00,VWS V14.01,2013-03-18 09:24:00,
2013-03-18 05:29:00,14.5,9.5,30.14,ESE,122,5.0,8.0,80,0.00,,CLR,0.00,VWS V14.01,2013-03-18 09:29:00,
2013-03-18 05:34:00,14.6,9.3,30.14,SE,135,15.0,17.0,79,0.00,,CLR,0.00,VWS V14.01,2013-03-18 09:34:00,
2013-03-18 05:39:00,14.6,9.3,30.14,SE,130,5.0,8.0,79,0.00,,CLR,0.00,VWS V14.01,2013-03-18 09:39:00,
2013-03-18 05:44:00,14.5,9.2,30.14,ESE,114,6.0,7.0,79,0.00,,CLR,0.00,VWS V14.01,2013-03-18 09:44:00,
2013-03-18 05:49:00,14.4,9.4,30.13,ESE,115,8.0,9.0,80,0.00,,CLR,0.00,VWS V14.01,2013-03-18 09:49:00,
2013-03-18 05:54:00,14.4,9.4,30.13,SE,138,9.0,9.0,80,0.00,,CLR,0.00,VWS V14.01,2013-03-18 09:54:00,
2013-03-18 05:59:00,14.3,9.3,30.13,ESE,115,9.0,9.0,80,0.00,,CLR,0.00,VWS V14.01,2013-03-18 09:59:00,
2013-03-18 06:04:00,14.2,9.2,30.13,ESE,117,7.0,8.0,80,0.00,,CLR,0.00,VWS V14.01,2013-03-18 10:04:00,
2013-03-18 06:09:00,14.1,9.1,30.13,ESE,123,10.0,12.0,80,0.00,,CLR,0.00,VWS V14.01,2013-03-18 10:09:00,
2013-03-18 06:14:00,14.1,9.1,30.12,SE,124,7.0,8.0,80,0.00,,CLR,0.00,VWS V14.01,2013-03-18 10:14:00,
2013-03-18 06:19:00,14.1,9.4,30.12,ESE,114,8.0,8.0,81,0.00,,CLR,0.00,VWS V14.01,2013-03-18 10:19:00,
2013-03-18 06:24:00,14.1,9.4,30.12,ESE,121,7.0,7.0,81,0.00,,CLR,0.00,VWS V14.01,2013-03-18 10:24:00,
2013-03-18 06:29:00,14.3,9.6,30.12,ESE,115,7.0,8.0,81,0.00,,CLR,0.00,VWS V14.01,2013-03-18 10:29:00,
2013-03-18 06:34:00,14.5,9.7,30.12,SE,125,5.0,7.0,81,0.00,,CLR,0.00,VWS V14.01,2013-03-18 10:34:00,
2013-03-18 06:39:00,14.7,9.9,30.11,SE,139,5.0,5.0,81,0.00,,CLR,0.00,VWS V14.01,2013-03-18 10:39:00,
2013-03-18 06:44:00,14.9,10.1,30.11,South,169,6.0,11.0,81,0.00,,CLR,0.00,VWS V14.01,2013-03-18 10:44:00,
2013-03-18 06:49:00,15.2,10.4,30.10,SE,130,8.0,9.0,81,0.00,,CLR,0.00,VWS V14.01,2013-03-18 10:49:00,
2013-03-18 06:54:00,15.3,10.5,30.11,ESE,122,5.0,7.0,81,0.00,,CLR,0.00,VWS V14.01,2013-03-18 10:54:00,
2013-03-18 06:59:00,15.5,10.7,30.10,SE,126,7.0,7.0,81,0.00,,CLR,0.00,VWS V14.01,2013-03-18 10:59:00,
2013-03-18 07:04:00,15.5,10.4,30.10,SE,144,5.0,7.0,80,0.00,,CLR,0.00,VWS V14.01,2013-03-18 11:04:00,
2013-03-18 07:09:00,15.6,10.8,30.10,SE,132,8.0,11.0,81,0.00,,CLR,0.00,VWS V14.01,2013-03-18 11:09:00,
2013-03-18 07:14:00,15.7,10.9,30.09,ESE,110,9.0,9.0,81,0.00,,CLR,0.00,VWS V14.01,2013-03-18 11:14:00,
2013-03-18 07:19:00,15.8,11.0,30.09,SE,143,8.0,8.0,81,0.00,,CLR,0.00,VWS V14.01,2013-03-18 11:19:00,
2013-03-18 07:24:00,15.9,11.1,30.09,SE,137,8.0,10.0,81,0.00,,CLR,0.00,VWS V14.01,2013-03-18 11:24:00,
2013-03-18 07:29:00,16.1,11.3,30.09,SE,136,5.0,7.0,81,0.00,,CLR,0.00,VWS V14.01,2013-03-18 11:29:00,
2013-03-18 07:34:00,16.4,11.6,30.08,SE,129,8.0,13.0,81,0.00,,CLR,0.00,VWS V14.01,2013-03-18 11:34:00,
2013-03-18 07:39:00,16.8,12.0,30.08,ESE,115,9.0,9.0,81,0.00,,CLR,0.00,VWS V14.01,2013-03-18 11:39:00,
2013-03-18 07:44:00,17.0,11.9,30.08,SE,131,9.0,11.0,80,0.00,,CLR,0.00,VWS V14.01,2013-03-18 11:44:00,
2013-03-18 07:49:00,17.0,12.2,30.08,ESE,123,9.0,14.0,81,0.00,,CLR,0.00,VWS V14.01,2013-03-18 11:49:00,
2013-03-18 07:54:00,17.0,12.2,30.07,SE,130,11.0,11.0,81,0.00,,CLR,0.00,VWS V14.01,2013-03-18 11:54:00,
2013-03-18 07:59:00,17.1,12.3,30.07,SSE,149,10.0,10.0,81,0.00,,CLR,0.00,VWS V14.01,2013-03-18 11:59:00,
2013-03-18 08:04:00,17.1,12.3,30.07,ESE,123,10.0,15.0,81,0.00,,CLR,0.00,VWS V14.01,2013-03-18 12:04:00,
2013-03-18 08:09:00,17.0,12.2,30.06,ESE,119,9.0,12.0,81,0.00,,CLR,0.00,VWS V14.01,2013-03-18 12:09:00,
2013-03-18 08:14:00,17.0,12.2,30.06,SE,125,7.0,8.0,81,0.00,,CLR,0.00,VWS V14.01,2013-03-18 12:14:00,
2013-03-18 08:19:00,17.2,12.4,30.06,SE,140,8.0,8.0,81,0.00,,CLR,0.00,VWS V14.01,2013-03-18 12:19:00,
2013-03-18 08:24:00,17.5,12.9,30.06,SE,124,4.0,9.0,82,0.00,,,0.00,VWS V14.01,2013-03-18 12:24:00,
2013-03-18 08:29:00,17.8,13.2,30.06,ESE,123,9.0,9.0,82,0.00,,,0.00,VWS V14.01,2013-03-18 12:29:00,
2013-03-18 08:34:00,18.2,13.6,30.06,SE,133,7.0,9.0,82,0.00,,,0.00,VWS V14.01,2013-03-18 12:34:00,
2013-03-18 08:39:00,18.6,14.0,30.06,ESE,119,7.0,8.0,82,0.00,,CLR,0.00,VWS V14.01,2013-03-18 12:39:00,
2013-03-18 08:44:00,18.8,14.2,30.05,ESE,115,9.0,11.0,82,0.00,,CLR,0.00,VWS V14.01,2013-03-18 12:44:00,
2013-03-18 08:50:00,19.0,14.1,30.05,ESE,116,7.0,9.0,81,0.00,,CLR,0.00,VWS V14.01,2013-03-18 12:50:00,
2013-03-18 08:54:00,19.3,14.7,30.05,SE,138,7.0,12.0,82,0.00,,CLR,0.00,VWS V14.01,2013-03-18 12:54:00,
2013-03-18 09:00:00,19.7,14.8,30.05,ESE,118,8.0,9.0,81,0.00,,CLR,0.00,VWS V14.01,2013-03-18 13:00:00,
2013-03-18 09:05:00,19.9,15.0,30.05,SE,138,11.0,12.0,81,0.00,,CLR,0.00,VWS V14.01,2013-03-18 13:05:00,
2013-03-18 09:10:00,20.3,15.4,30.05,SE,125,10.0,10.0,81,0.00,,CLR,0.00,VWS V14.01,2013-03-18 13:10:00,
2013-03-18 09:15:00,20.7,15.8,30.04,SE,127,13.0,15.0,81,0.00,,CLR,0.00,VWS V14.01,2013-03-18 13:15:00,
2013-03-18 09:20:00,20.8,15.9,30.03,SSE,150,5.0,9.0,81,0.00,,CLR,0.00,VWS V14.01,2013-03-18 13:20:00,
2013-03-18 09:25:00,20.9,16.0,30.03,SE,136,8.0,11.0,81,0.00,,BKN018,0.00,VWS V14.01,2013-03-18 13:25:00,
2013-03-18 09:30:00,21.0,16.1,30.02,SE,136,5.0,8.0,81,0.00,,BKN018,0.00,VWS V14.01,2013-03-18 13:30:00,
2013-03-18 09:35:00,21.2,16.3,30.02,SE,130,8.0,10.0,81,0.00,,BKN018,0.00,VWS V14.01,2013-03-18 13:35:00,
2013-03-18 09:40:00,21.3,16.4,30.01,SE,126,16.0,19.0,81,0.00,,BKN018,0.00,VWS V14.01,2013-03-18 13:40:00,
2013-03-18 09:45:00,21.6,16.7,30.01,SE,136,10.0,16.0,81,0.00,,BKN018,0.00,VWS V14.01,2013-03-18 13:45:00,
2013-03-18 09:50:00,22.1,17.2,30.00,SSE,148,14.0,14.0,81,0.00,,BKN018,0.00,VWS V14.01,2013-03-18 13:50:00,
2013-03-18 09:55:00,22.5,17.3,30.00,SE,125,14.0,17.0,80,0.00,,SCT018,0.00,VWS V14.01,2013-03-18 13:55:00,
2013-03-18 10:00:00,22.9,17.7,30.00,ESE,119,11.0,15.0,80,0.00,,SCT018,0.00,VWS V14.01,2013-03-18 14:00:00,
2013-03-18 10:05:00,23.5,18.2,30.00,SE,130,8.0,17.0,80,0.00,,SCT018,0.00,VWS V14.01,2013-03-18 14:05:00,
2013-03-18 10:10:00,24.0,18.5,30.00,SE,128,14.0,15.0,79,0.00,,CLR,0.00,VWS V14.01,2013-03-18 14:10:00,
2013-03-18 10:15:00,24.5,18.9,30.00,ESE,121,14.0,16.0,79,0.00,,CLR,0.00,VWS V14.01,2013-03-18 14:15:00,
2013-03-18 10:20:00,24.8,19.2,30.00,ESE,107,16.0,17.0,79,0.00,,CLR,0.00,VWS V14.01,2013-03-18 14:20:00,
2013-03-18 10:25:00,25.3,19.7,29.99,ESE,110,10.0,11.0,79,0.00,,CLR,0.00,VWS V14.01,2013-03-18 14:25:00,
2013-03-18 10:30:00,25.8,19.9,29.99,ESE,120,9.0,11.0,78,0.00,,CLR,0.00,VWS V14.01,2013-03-18 14:30:00,
2013-03-18 10:35:00,25.9,20.0,29.98,ESE,121,13.0,16.0,78,0.00,,CLR,0.00,VWS V14.01,2013-03-18 14:35:00,
2013-03-18 10:40:00,26.3,20.1,29.98,ESE,114,12.0,13.0,77,0.00,,CLR,0.00,VWS V14.01,2013-03-18 14:40:00,
2013-03-18 10:45:00,26.9,20.4,29.97,SE,146,12.0,17.0,76,0.00,,CLR,0.00,VWS V14.01,2013-03-18 14:45:00,
2013-03-18 10:50:00,27.3,20.4,29.97,ESE,105,10.0,14.0,75,0.00,,CLR,0.00,VWS V14.01,2013-03-18 14:50:00,
2013-03-18 10:55:00,27.6,20.1,29.96,East,96,10.0,11.0,73,0.00,,CLR,0.00,VWS V14.01,2013-03-18 14:55:00,
2013-03-18 11:00:00,27.9,19.7,29.95,SE,126,11.0,16.0,71,0.00,,CLR,0.00,VWS V14.01,2013-03-18 15:00:00,
2013-03-18 11:05:00,28.5,19.6,29.94,ESE,115,13.0,16.0,69,0.00,,CLR,0.00,VWS V14.01,2013-03-18 15:05:00,
2013-03-18 11:10:00,28.9,20.0,29.94,SE,132,15.0,16.0,69,0.00,,CLR,0.00,VWS V14.01,2013-03-18 15:10:00,
2013-03-18 11:15:00,29.0,19.4,29.94,ESE,121,13.0,16.0,67,0.00,,CLR,0.00,VWS V14.01,2013-03-18 15:15:00,
2013-03-18 11:20:00,29.1,19.5,29.94,SE,130,16.0,18.0,67,0.00,,CLR,0.00,VWS V14.01,2013-03-18 15:20:00,
2013-03-18 11:25:00,29.4,19.1,29.94,SE,134,18.0,19.0,65,0.00,,CLR,0.00,VWS V14.01,2013-03-18 15:25:00,
2013-03-18 11:30:00,29.6,19.3,29.93,SE,134,12.0,14.0,65,0.00,,CLR,0.00,VWS V14.01,2013-03-18 15:30:00,
2013-03-18 11:35:00,30.1,19.4,29.93,SSE,150,12.0,17.0,64,0.00,,CLR,0.00,VWS V14.01,2013-03-18 15:35:00,
2013-03-18 11:40:00,30.1,19.4,29.92,ESE,111,17.0,17.0,64,0.00,,CLR,0.00,VWS V14.01,2013-03-18 15:40:00,
2013-03-18 11:45:00,30.4,19.3,29.91,ESE,105,17.0,18.0,63,0.00,,CLR,0.00,VWS V14.01,2013-03-18 15:45:00,
2013-03-18 11:50:00,30.6,19.1,29.90,ESE,120,13.0,20.0,62,0.00,,CLR,0.00,VWS V14.01,2013-03-18 15:50:00,
2013-03-18 11:55:00,30.6,18.8,29.90,East,94,21.0,21.0,61,0.00,,CLR,0.00,VWS V14.01,2013-03-18 15:55:00,
2013-03-18 12:00:00,31.0,18.8,29.90,ESE,102,8.0,9.0,60,0.00,,CLR,0.00,VWS V14.01,2013-03-18 16:00:00,
2013-03-18 12:05:00,31.4,18.7,29.90,SE,129,12.0,13.0,59,0.00,,CLR,0.00,VWS V14.01,2013-03-18 16:05:00,
2013-03-18 12:10:00,31.7,18.6,29.90,SE,133,4.0,12.0,58,0.00,,CLR,0.00,VWS V14.01,2013-03-18 16:10:00,
2013-03-18 12:15:00,32.2,18.3,29.89,ESE,123,15.0,19.0,56,0.00,,CLR,0.00,VWS V14.01,2013-03-18 16:15:00,
2013-03-18 12:20:00,32.3,18.4,29.89,SE,133,8.0,9.0,56,0.00,,CLR,0.00,VWS V14.01,2013-03-18 16:20:00,
2013-03-18 12:25:00,32.4,18.5,29.88,SE,135,13.0,15.0,56,0.00,,CLR,0.00,VWS V14.01,2013-03-18 16:25:00,
2013-03-18 12:30:00,32.9,18.1,29.87,ESE,117,8.0,8.0,54,0.00,,CLR,0.00,VWS V14.01,2013-03-18 16:30:00,
2013-03-18 12:35:00,33.2,18.4,29.87,ESE,115,15.0,17.0,54,0.00,,CLR,0.00,VWS V14.01,2013-03-18 16:35:00,
2013-03-18 12:41:00,33.3,18.5,29.86,East,96,14.0,15.0,54,0.00,,CLR,0.00,VWS V14.01,2013-03-18 16:41:00,
2013-03-18 12:46:00,33.5,18.6,29.85,SE,134,12.0,15.0,54,0.00,,CLR,0.00,VWS V14.01,2013-03-18 16:46:00,
2013-03-18 12:51:00,33.5,18.2,29.84,ESE,122,13.0,13.0,53,0.00,,CLR,0.00,VWS V14.01,2013-03-18 16:51:00,
2013-03-18 12:56:00,33.6,19.2,29.83,SE,129,11.0,13.0,55,0.00,,CLR,0.00,VWS V14.01,2013-03-18 16:56:00,
2013-03-18 13:01:00,33.8,18.9,29.83,SE,128,20.0,20.0,54,0.00,,CLR,0.00,VWS V14.01,2013-03-18 17:01:00,
2013-03-18 13:06:00,33.8,19.4,29.82,SE,127,12.0,17.0,55,0.00,,CLR,0.00,VWS V14.01,2013-03-18 17:06:00,
2013-03-18 13:11:00,33.8,19.8,29.81,SE,126,9.0,11.0,56,0.00,,-RA,0.00,VWS V14.01,2013-03-18 17:11:00,
2013-03-18 13:16:00,33.9,19.9,29.81,ESE,119,11.0,14.0,56,0.00,,-RA,0.00,VWS V14.01,2013-03-18 17:16:00,
2013-03-18 13:22:00,34.3,19.8,29.80,SE,144,15.0,18.0,55,0.00,,-RA,0.00,VWS V14.01,2013-03-18 17:22:00,
2013-03-18 13:27:00,34.3,20.2,29.80,SE,127,9.0,11.0,56,0.00,,-RA,0.00,VWS V14.01,2013-03-18 17:27:00,
2013-03-18 13:32:00,34.5,20.4,29.79,SE,133,8.0,13.0,56,0.00,,-RA,0.00,VWS V14.01,2013-03-18 17:32:00,
2013-03-18 13:37:00,34.3,19.8,29.79,ESE,117,10.0,15.0,55,0.00,,-RA,0.00,VWS V14.01,2013-03-18 17:37:00,
2013-03-18 13:42:00,34.5,20.0,29.78,SE,139,9.0,12.0,55,0.00,,-RA,0.00,VWS V14.01,2013-03-18 17:42:00,
2013-03-18 13:47:00,34.4,19.5,29.78,ESE,117,17.0,17.0,54,0.00,,-RA,0.00,VWS V14.01,2013-03-18 17:47:00,
2013-03-18 13:52:00,34.6,19.7,29.78,ESE,116,13.0,16.0,54,0.00,,-RA,0.00,VWS V14.01,2013-03-18 17:52:00,
2013-03-18 13:57:00,35.0,19.6,29.78,SE,126,10.0,15.0,53,0.00,,-RA,0.00,VWS V14.01,2013-03-18 17:57:00,
2013-03-18 14:02:00,35.7,20.7,29.77,SE,124,10.0,12.0,54,0.00,,-RA,0.00,VWS V14.01,2013-03-18 18:02:00,
2013-03-18 14:07:00,36.0,20.5,29.77,ESE,120,14.0,14.0,53,0.00,,CLR,0.00,VWS V14.01,2013-03-18 18:07:00,
2013-03-18 14:12:00,36.3,19.9,29.77,ESE,105,17.0,20.0,51,0.00,,CLR,0.00,VWS V14.01,2013-03-18 18:12:00,
2013-03-18 14:17:00,36.2,19.4,29.76,SE,142,12.0,17.0,50,0.00,,CLR,0.00,VWS V14.01,2013-03-18 18:17:00,
2013-03-18 14:22:00,36.7,20.3,29.76,SE,131,17.0,23.0,51,0.00,,CLR,0.00,VWS V14.01,2013-03-18 18:22:00,
2013-03-18 14:27:00,36.9,20.5,29.75,ESE,123,15.0,17.0,51,0.00,,CLR,0.00,VWS V14.01,2013-03-18 18:27:00,
2013-03-18 14:32:00,36.9,20.9,29.76,ESE,119,10.0,12.0,52,0.00,,CLR,0.00,VWS V14.01,2013-03-18 18:32:00,
2013-03-18 14:37:00,36.5,21.5,29.75,SSE,156,11.0,15.0,54,0.00,,CLR,0.00,VWS V14.01,2013-03-18 18:37:00,
2013-03-18 14:42:00,36.4,21.8,29.75,ESE,114,10.0,17.0,55,0.00,,CLR,0.00,VWS V14.01,2013-03-18 18:42:00,
2013-03-18 14:47:00,35.5,21.8,29.75,ESE,116,11.0,13.0,57,0.00,,CLR,0.00,VWS V14.01,2013-03-18 18:47:00,
2013-03-18 14:52:00,35.7,22.4,29.74,ESE,109,20.0,21.0,58,0.00,,CLR,0.00,VWS V14.01,2013-03-18 18:52:00,
2013-03-18 14:57:00,36.0,22.7,29.73,SE,128,15.0,21.0,58,0.00,,CLR,0.00,VWS V14.01,2013-03-18 18:57:00,
2013-03-18 15:02:00,36.5,22.7,29.72,SE,140,9.0,12.0,57,0.00,,CLR,0.00,VWS V14.01,2013-03-18 19:02:00,
2013-03-18 15:07:00,36.6,22.4,29.72,ESE,114,16.0,21.0,56,0.00,,CLR,0.00,VWS V14.01,2013-03-18 19:07:00,
2013-03-18 15:13:00,36.6,22.8,29.71,ESE,114,12.0,14.0,57,0.00,,CLR,0.00,VWS V14.01,2013-03-18 19:13:00,
2013-03-18 15:18:00,36.2,22.5,29.71,ESE,109,16.0,21.0,57,0.00,,CLR,0.00,VWS V14.01,2013-03-18 19:18:00,
2013-03-18 15:23:00,36.1,22.8,29.70,ESE,109,13.0,14.0,58,0.00,,CLR,0.00,VWS V14.01,2013-03-18 19:23:00,
2013-03-18 15:28:00,35.9,22.6,29.70,ESE,121,17.0,17.0,58,0.00,,CLR,0.00,VWS V14.01,2013-03-18 19:28:00,
2013-03-18 15:33:00,35.9,22.6,29.69,ESE,113,22.0,22.0,58,0.00,,CLR,0.00,VWS V14.01,2013-03-18 19:33:00,
2013-03-18 15:38:00,35.5,22.2,29.69,ESE,118,17.0,23.0,58,0.00,,CLR,0.00,VWS V14.01,2013-03-18 19:38:00,
2013-03-18 15:43:00,35.3,22.8,29.69,ESE,115,23.0,23.0,60,0.00,,CLR,0.00,VWS V14.01,2013-03-18 19:43:00,
2013-03-18 15:48:00,35.0,22.1,29.68,ESE,123,22.0,22.0,59,0.00,,CLR,0.00,VWS V14.01,2013-03-18 19:48:00,
2013-03-18 15:53:00,34.8,22.3,29.68,SE,126,21.0,21.0,60,0.00,,CLR,0.00,VWS V14.01,2013-03-18 19:53:00,
2013-03-18 15:58:00,34.7,22.2,29.67,ESE,117,13.0,18.0,60,0.00,,CLR,0.00,VWS V14.01,2013-03-18 19:58:00,
2013-03-18 16:03:00,34.6,22.9,29.67,SE,140,14.0,14.0,62,0.00,,CLR,0.00,VWS V14.01,2013-03-18 20:03:00,
2013-03-18 16:08:00,34.4,22.4,29.67,SE,124,12.0,14.0,61,0.00,,FEW033,0.00,VWS V14.01,2013-03-18 20:08:00,
2013-03-18 16:13:00,34.3,22.3,29.67,ESE,117,26.0,26.0,61,0.00,,FEW033,0.00,VWS V14.01,2013-03-18 20:13:00,
2013-03-18 16:18:00,34.3,22.6,29.66,ESE,111,11.0,13.0,62,0.00,,FEW033,0.00,VWS V14.01,2013-03-18 20:18:00,
2013-03-18 16:23:00,34.3,22.6,29.66,ESE,111,14.0,17.0,62,0.00,,FEW033,0.00,VWS V14.01,2013-03-18 20:23:00,
2013-03-18 16:28:00,33.8,22.5,29.66,ESE,115,20.0,26.0,63,0.00,,FEW033,0.00,VWS V14.01,2013-03-18 20:28:00,
2013-03-18 16:33:00,33.5,23.0,29.67,ESE,120,14.0,18.0,65,0.00,,FEW033,0.00,VWS V14.01,2013-03-18 20:33:00,
2013-03-18 16:38:00,33.3,22.5,29.66,ESE,114,20.0,24.0,64,0.00,,FEW033,0.00,VWS V14.01,2013-03-18 20:38:00,
2013-03-18 16:43:00,33.0,22.5,29.66,ESE,119,9.0,13.0,65,0.00,,FEW033,0.00,VWS V14.01,2013-03-18 20:43:00,
2013-03-18 16:48:00,33.0,22.5,29.65,SE,129,14.0,31.0,65,0.00,,FEW033,0.00,VWS V14.01,2013-03-18 20:48:00,
2013-03-18 16:53:00,32.9,22.8,29.65,ESE,107,11.0,13.0,66,0.00,,OVC029,0.00,VWS V14.01,2013-03-18 20:53:00,
2013-03-18 16:58:00,32.7,23.0,29.65,ESE,112,14.0,15.0,67,0.00,,OVC029,0.00,VWS V14.01,2013-03-18 20:58:00,
2013-03-18 17:03:00,32.4,23.0,29.64,SE,134,13.0,20.0,68,0.00,,OVC029,0.00,VWS V14.01,2013-03-18 21:03:00,
2013-03-18 17:08:00,32.2,23.2,29.64,ESE,106,19.0,19.0,69,0.00,,OVC029,0.00,VWS V14.01,2013-03-18 21:08:00,
2013-03-18 17:13:00,32.0,23.0,29.65,SE,126,16.0,21.0,69,0.00,,OVC029,0.00,VWS V14.01,2013-03-18 21:13:00,
2013-03-18 17:18:00,31.7,23.0,29.65,SE,129,16.0,16.0,70,0.00,,OVC029,0.00,VWS V14.01,2013-03-18 21:18:00,
2013-03-18 17:23:00,31.5,23.2,29.64,East,99,14.0,18.0,71,0.00,,OVC029,0.00,VWS V14.01,2013-03-18 21:23:00,
2013-03-18 17:28:00,31.3,23.3,29.64,SE,128,13.0,16.0,72,0.00,,OVC029,0.00,VWS V14.01,2013-03-18 21:28:00,
2013-03-18 17:33:00,31.1,23.5,29.64,ESE,111,13.0,15.0,73,0.00,,OVC029,0.00,VWS V14.01,2013-03-18 21:33:00,
2013-03-18 17:38:00,30.8,24.1,29.64,SSE,152,8.0,11.0,76,0.00,,,0.00,VWS V14.01,2013-03-18 21:38:00,
2013-03-18 17:44:00,30.6,24.3,29.64,SE,128,11.0,12.0,77,0.00,,,0.00,VWS V14.01,2013-03-18 21:44:00,
2013-03-18 17:49:00,30.4,24.7,29.64,SE,136,4.0,10.0,79,0.00,,,0.00,VWS V14.01,2013-03-18 21:49:00,
2013-03-18 17:54:00,30.2,24.5,29.64,SE,134,10.0,10.0,79,0.00,,,0.00,VWS V14.01,2013-03-18 21:54:00,
2013-03-18 17:59:00,30.1,25.0,29.64,SE,136,10.0,12.0,81,0.00,,,0.00,VWS V14.01,2013-03-18 21:59:00,
2013-03-18 18:04:00,29.9,25.1,29.65,ESE,113,12.0,13.0,82,0.00,,,0.00,VWS V14.01,2013-03-18 22:04:00,
2013-03-18 18:09:00,29.6,25.6,29.64,ESE,121,8.0,9.0,85,0.00,,,0.00,VWS V14.01,2013-03-18 22:09:00,
2013-03-18 18:14:00,29.2,25.8,29.64,ESE,120,13.0,14.0,87,0.00,,,0.00,VWS V14.01,2013-03-18 22:14:00,
2013-03-18 18:19:00,28.9,26.1,29.64,ESE,120,9.0,11.0,89,0.00,,,0.00,VWS V14.01,2013-03-18 22:19:00,
2013-03-18 18:24:00,28.7,26.1,29.64,SE,138,8.0,9.0,90,0.00,,,0.00,VWS V14.01,2013-03-18 22:24:00,
2013-03-18 18:29:00,28.6,26.3,29.64,SE,128,7.0,11.0,91,0.00,,,0.00,VWS V14.01,2013-03-18 22:29:00,
2013-03-18 18:34:00,28.6,26.3,29.64,SSE,156,8.0,10.0,91,0.00,,,0.00,VWS V14.01,2013-03-18 22:34:00,
2013-03-18 18:39:00,28.7,26.4,29.63,ESE,117,7.0,9.0,91,0.00,,,0.00,VWS V14.01,2013-03-18 22:39:00,
2013-03-18 18:44:00,28.7,26.4,29.63,SE,127,8.0,10.0,91,0.00,,,0.00,VWS V14.01,2013-03-18 22:44:00,
2013-03-18 18:49:00,28.8,26.5,29.62,ESE,111,8.0,9.0,91,0.00,,,0.00,VWS V14.01,2013-03-18 22:49:00,
2013-03-18 18:54:00,28.8,26.5,29.62,ESE,104,9.0,10.0,91,0.00,,,0.00,VWS V14.01,2013-03-18 22:54:00,
2013-03-18 18:59:00,28.7,26.4,29.61,SE,133,9.0,12.0,91,0.00,,,0.00,VWS V14.01,2013-03-18 22:59:00,
2013-03-18 19:04:00,28.7,26.4,29.61,ESE,123,18.0,18.0,91,0.00,,,0.00,VWS V14.01,2013-03-18 23:04:00,
2013-03-18 19:09:00,28.7,26.4,29.61,ESE,122,15.0,15.0,91,0.00,,,0.00,VWS V14.01,2013-03-18 23:09:00,
2013-03-18 19:14:00,28.7,26.4,29.61,ESE,105,7.0,10.0,91,0.00,,,0.00,VWS V14.01,2013-03-18 23:14:00,
2013-03-18 19:19:00,28.6,26.3,29.60,SE,124,13.0,13.0,91,0.00,,,0.00,VWS V14.01,2013-03-18 23:19:00,
2013-03-18 19:24:00,28.6,26.3,29.60,ESE,106,11.0,11.0,91,0.00,,,0.00,VWS V14.01,2013-03-18 23:24:00,
2013-03-18 19:30:00,28.6,26.3,29.60,SE,132,4.0,8.0,91,0.00,,,0.00,VWS V14.01,2013-03-18 23:30:00,
2013-03-18 19:34:00,28.7,26.4,29.59,ESE,113,7.0,12.0,91,0.00,,,0.00,VWS V14.01,2013-03-18 23:34:00,
2013-03-18 19:40:00,28.7,26.4,29.59,SE,130,9.0,11.0,91,0.00,,,0.00,VWS V14.01,2013-03-18 23:40:00,
2013-03-18 19:45:00,28.8,26.5,29.59,SE,129,10.0,12.0,91,0.00,,,0.00,VWS V14.01,2013-03-18 23:45:00,
2013-03-18 19:50:00,28.8,26.5,29.59,SE,131,10.0,11.0,91,0.00,,,0.00,VWS V14.01,2013-03-18 23:50:00,
2013-03-18 19:55:00,28.8,26.5,29.59,ESE,115,6.0,7.0,91,0.00,,,0.00,VWS V14.01,2013-03-18 23:55:00,
2013-03-18 20:00:00,28.9,26.6,29.59,ESE,111,11.0,11.0,91,0.00,,,0.00,VWS V14.01,2013-03-19 00:00:00,
2013-03-18 20:05:00,28.9,26.6,29.59,ESE,111,6.0,8.0,91,0.00,,,0.00,VWS V14.01,2013-03-19 00:05:00,
2013-03-18 20:10:00,28.9,26.6,29.59,ESE,110,6.0,7.0,91,0.00,,,0.00,VWS V14.01,2013-03-19 00:10:00,
2013-03-18 20:15:00,29.0,27.0,29.58,SE,124,9.0,9.0,92,0.00,,,0.00,VWS V14.01,2013-03-19 00:15:00,
2013-03-18 20:20:00,29.0,27.0,29.58,ESE,102,9.0,12.0,92,0.00,,,0.00,VWS V14.01,2013-03-19 00:20:00,
2013-03-18 20:25:00,29.0,27.0,29.58,ESE,119,12.0,12.0,92,0.00,,,0.00,VWS V14.01,2013-03-19 00:25:00,
2013-03-18 20:30:00,29.1,27.1,29.58,SE,125,11.0,12.0,92,0.00,,,0.00,VWS V14.01,2013-03-19 00:30:00,
2013-03-18 20:35:00,29.2,27.2,29.58,SE,132,10.0,13.0,92,0.00,,,0.00,VWS V14.01,2013-03-19 00:35:00,
2013-03-18 20:40:00,29.2,27.2,29.58,ESE,117,8.0,12.0,92,0.00,,,0.00,VWS V14.01,2013-03-19 00:40:00,
2013-03-18 20:45:00,29.2,27.2,29.57,SE,125,10.0,11.0,92,0.00,,,0.00,VWS V14.01,2013-03-19 00:45:00,
2013-03-18 20:50:00,29.2,27.2,29.57,ESE,121,10.0,10.0,92,0.00,,,0.00,VWS V14.01,2013-03-19 00:50:00,
2013-03-18 20:55:00,29.3,27.3,29.57,ESE,109,8.0,8.0,92,0.00,,,0.00,VWS V14.01,2013-03-19 00:55:00,
2013-03-18 21:00:00,29.3,27.3,29.57,SE,134,8.0,9.0,92,0.00,,,0.00,VWS V14.01,2013-03-19 01:00:00,
2013-03-18 21:05:00,29.3,27.3,29.56,SE,141,11.0,11.0,92,0.00,,,0.00,VWS V14.01,2013-03-19 01:05:00,
2013-03-18 21:10:00,29.4,27.4,29.56,SE,138,9.0,9.0,92,0.00,,,0.00,VWS V14.01,2013-03-19 01:10:00,
2013-03-18 21:15:00,29.4,27.4,29.56,SE,143,4.0,8.0,92,0.00,,,0.00,VWS V14.01,2013-03-19 01:15:00,
2013-03-18 21:20:00,29.4,27.4,29.56,ESE,112,4.0,7.0,92,0.00,,,0.00,VWS V14.01,2013-03-19 01:20:00,
2013-03-18 21:25:00,29.4,27.4,29.56,ESE,121,8.0,9.0,92,0.00,,,0.00,VWS V14.01,2013-03-19 01:25:00,
2013-03-18 21:30:00,29.5,27.5,29.56,East,100,6.0,8.0,92,0.00,,,0.00,VWS V14.01,2013-03-19 01:30:00,
2013-03-18 21:35:00,29.6,27.6,29.55,ESE,116,3.0,5.0,92,0.00,,,0.00,VWS V14.01,2013-03-19 01:35:00,
2013-03-18 21:40:00,29.6,27.3,29.55,SSE,151,9.0,11.0,91,0.00,,,0.00,VWS V14.01,2013-03-19 01:40:00,
2013-03-18 21:45:00,29.7,27.4,29.55,SE,132,7.0,10.0,91,0.00,,,0.00,VWS V14.01,2013-03-19 01:45:00,
2013-03-18 21:50:00,29.7,27.4,29.55,ESE,109,12.0,12.0,91,0.00,,,0.00,VWS V14.01,2013-03-19 01:50:00,
2013-03-18 21:55:00,29.7,27.4,29.54,SE,134,12.0,12.0,91,0.00,,,0.00,VWS V14.01,2013-03-19 01:55:00,
2013-03-18 22:00:00,29.7,27.4,29.54,ESE,113,6.0,11.0,91,0.00,,,0.00,VWS V14.01,2013-03-19 02:00:00,
2013-03-18 22:05:00,29.8,27.5,29.54,SE,142,7.0,10.0,91,0.00,,,0.00,VWS V14.01,2013-03-19 02:05:00,
2013-03-18 22:10:00,29.8,27.5,29.54,SE,130,5.0,5.0,91,0.00,,,0.00,VWS V14.01,2013-03-19 02:10:00,
2013-03-18 22:15:00,29.8,27.5,29.54,ESE,116,4.0,5.0,91,0.00,,,0.00,VWS V14.01,2013-03-19 02:15:00,
2013-03-18 22:20:00,29.8,27.5,29.53,ESE,113,6.0,8.0,91,0.00,,,0.00,VWS V14.01,2013-03-19 02:20:00,
2013-03-18 22:25:00,29.7,27.4,29.53,SE,129,4.0,7.0,91,0.00,,,0.00,VWS V14.01,2013-03-19 02:25:00,
2013-03-18 22:30:00,29.7,27.4,29.53,SE,128,4.0,5.0,91,0.00,,,0.00,VWS V14.01,2013-03-19 02:30:00,
2013-03-18 22:35:00,29.7,27.4,29.53,SE,134,12.0,12.0,91,0.00,,,0.00,VWS V14.01,2013-03-19 02:35:00,
2013-03-18 22:40:00,29.7,27.4,29.53,ESE,123,7.0,9.0,91,0.00,,,0.00,VWS V14.01,2013-03-19 02:40:00,
2013-03-18 22:45:00,29.7,27.7,29.53,SE,136,9.0,9.0,92,0.00,,,0.00,VWS V14.01,2013-03-19 02:45:00,
2013-03-18 22:50:00,29.7,27.7,29.53,ESE,116,4.0,6.0,92,0.00,,,0.00,VWS V14.01,2013-03-19 02:50:00,
2013-03-18 22:55:00,29.6,27.6,29.52,East,92,4.0,4.0,92,0.00,,,0.00,VWS V14.01,2013-03-19 02:55:00,
2013-03-18 23:00:00,29.6,27.6,29.52,ESE,119,11.0,11.0,92,0.00,,,0.00,VWS V14.01,2013-03-19 03:00:00,
2013-03-18 23:05:00,29.6,27.3,29.52,SE,131,4.0,7.0,91,0.00,,,0.00,VWS V14.01,2013-03-19 03:05:00,
2013-03-18 23:11:00,29.5,27.2,29.52,South,177,4.0,8.0,91,0.00,,,0.00,VWS V14.01,2013-03-19 03:11:00,
2013-03-18 23:16:00,29.6,27.3,29.52,SE,132,10.0,10.0,91,0.00,,,0.00,VWS V14.01,2013-03-19 03:16:00,
2013-03-18 23:21:00,29.6,27.3,29.52,ESE,114,8.0,8.0,91,0.00,,,0.00,VWS V14.01,2013-03-19 03:21:00,
2013-03-18 23:26:00,29.5,27.2,29.51,SE,134,7.0,10.0,91,0.00,,,0.00,VWS V14.01,2013-03-19 03:26:00,
2013-03-18 23:31:00,29.5,27.2,29.51,SE,125,5.0,10.0,91,0.00,,,0.00,VWS V14.01,2013-03-19 03:31:00,
2013-03-18 23:36:00,29.5,27.2,29.51,SE,136,5.0,8.0,91,0.00,,,0.00,VWS V14.01,2013-03-19 03:36:00,
2013-03-18 23:41:00,29.6,27.3,29.51,SE,143,5.0,5.0,91,0.00,,,0.00,VWS V14.01,2013-03-19 03:41:00,
2013-03-18 23:46:00,29.6,27.3,29.50,SSE,165,8.0,9.0,91,0.00,,,0.00,VWS V14.01,2013-03-19 03:46:00,
2013-03-18 23:51:00,29.6,27.3,29.50,SE,125,9.0,11.0,91,0.00,,,0.00,VWS V14.01,2013-03-19 03:51:00,
2013-03-18 23:56:00,29.5,27.2,29.50,SE,136,9.0,9.0,91,0.00,,,0.00,VWS V14.01,2013-03-19 03:56:00,